Tracking 30105 objects as of 24-Jan-2025
HD Live streaming from Space Station
objects crossing your sky now

FENGYUN 1C DEB

Track FENGYUN 1C DEB now!
10-day predictions


NORAD ID: 30678
Int'l Code: 1999-025AQL
Perigee: 780.3 km
Apogee: 898.1 km
Inclination: 99.1 °
Period: 101.5 minutes
Semi major axis: 7210 km
RCS: 0.0357 m2 (small)
Launch date: May 10, 1999
Source: People's Republic of China (PRC)
Launch site: Taiyaun Space Center, China (TSC)

Note: This is SATELLITE DEBRIS
Your satellite tracking list
Your tracking list is empty




NASA's NSSDC Master Catalog

Two Line Element Set (TLE):
1 30678U 99025AQL 25023.81129205  .00013635  00000-0  64491-2 0  9993
2 30678  99.0775 335.5711 0081721  70.3440 319.6645 14.18026028912889
Source of the keplerian elements: AFSPC